www.pogodaiklimat.ru

Погода и климат >> Архив погоды >> Чехия >> Часлав


ПОГОДА в Чаславе

  • Прогноз погоды в Чаславе
  • Монитор погоды в Чаславе

АРХИВ ПОГОДЫ в Чаславе

Время (UTC), дата Ветер
(напр.,м/с)
 
Видим.   Явления Облачность Т
(С)
Тd
(С)
f
(%)
Тe
(С)
Тes
(С)
Комфортность P
(гПа)
Po
(гПа)
Тmin
(С)
Tmax
(С)
R
(мм)
R24
(мм)
S
(см)
16 16.08 З 3 20 км 5/3 930 м
[Cu med, cong Ac trans]
+20.1 +12.6 62 +22 +23 комфорт 1016.6 988.8
17 16.08 С 3 20 км 6/0
[Ac und]
+19.9 +12.0 60 +22 +22 комфорт 1016.9 989.1
18 16.08 В 2 20 км {гроза, ливн. осадки} 4/0
[Ac trans Ci fib]
+17.8 +13.3 75 +18 +18 1017.1 989.1 +21.6 2
19 16.08 штиль 0 20 км 3/0
[Ci fib]
+16.3 +13.0 81 +16 +16 1017.7 989.5
20 16.08 Ю 1 20 км 3/0
[Ci fib]
+15.5 +12.9 84 +16 +16 1017.8 989.6
21 16.08 Ю 1 20 км 3/0
[Ci fib]
+13.6 +11.9 89 +14 +14 1017.9 989.5
22 16.08 ЮВ 2 20 км 3/0
[Ci fib]
+13.9 +11.5 85 +13 +13 1017.7 989.3
23 16.08 ЮВ 2 20 км 3/0
[Ci fib]
+12.8 +11.1 89 +12 +12 1017.8 989.3
00 17.08 ЮВ 2 20 км 3/0
[Ci fib]
+12.7 +10.6 87 +12 +12 1017.6 989.1
01 17.08 ЮВ 2 20 км 3/0
[Ci fib]
+12.8 +10.4 85 +12 +12 1017.4 988.9
02 17.08 ЮВ 2 20 км ясно +12.3 +10.0 86 +11 +11 1016.9 988.4
03 17.08 ЮВ 3 20 км ясно +13.0 +10.0 82 +12 +12 1016.8 988.3
04 17.08 ЮВ 2 20 км 4/0
[Ac und Ci fib]
+12.0 +9.7 86 +11 +11 1016.9 988.3
05 17.08 ЮВ 3 20 км 5/0
[Cs]
+13.5 +10.7 83 +12 +13 1017.0 988.6
06 17.08 ЮВ 2 20 км 8/0
[Cs]
+15.5 +11.9 79 +15 +17 1016.5 988.3 +11.7
07 17.08 ЮВ 2 20 км 9/0
[Cs]
+18.0 +12.9 72 +19 +23 1016.0 988.1
08 17.08 ЮВ 3 20 км 9/0
[Cs]
+19.1 +12.6 66 +20 +26 1015.8 988.0
09 17.08 Ю 3 20 км 9/0
[Ac trans Cs]
+20.8 +13.0 61 +24 +28 комфорт 1015.6 987.9
10 17.08 Ю 2 20 км 8/0
[Ac trans]
+22.3 +11.0 49 +24 +31 комфорт 1015.1 987.6
11 17.08 ЮЗ 3 20 км 8/0
[Ac trans]
+23.1 +10.1 44 +25 +31 комфорт 1015.0 987.5
12 17.08 ЮЗ 4 20 км 9/0
[Ac As]
+23.1 +11.6 48 +25 +29 комфорт 1014.5 987.1
13 17.08 Ю 4 20 км 9/0
[Ac As]
+22.9 +10.5 45 +25 +28 комфорт 1014.3 986.8
14 17.08 Ю 3 20 км 9/0
[Ac As]
+23.1 +10.8 46 +25 +28 комфорт 1013.8 986.4
15 17.08 Ю 3 20 км 9/0
[Ac As]
+23.0 +10.8 46 +25 +27 комфорт 1013.9 986.5
16 17.08 Ю 4 20 км 10/0
[Ac As]
+22.7 +11.2 48 +25 +25 комфорт 1013.3 985.8
17 17.08 ЮВ 2 20 км 10/0
[Ac As]
+22.6 +11.5 49 +25 +25 комфорт 1013.2 985.7
18 17.08 ЮВ 3 20 км 10/0
[Ac As]
+21.5 +12.3 56 +24 +24 комфорт 1012.8 985.3 +23.8
19 17.08 ЮВ 2 20 км 10/0
[Ac As]
+20.6 +12.6 60 +23 +23 комфорт 1012.7 985.1
20 17.08 Ю 1 20 км 10/0
[Ac As]
+20.0 +11.6 58 +23 +23 комфорт 1013.0 985.3
21 17.08 З 2 20 км 10/0
[Ac As]
+18.9 +13.0 69 +20 +20 1013.4 985.6
22 17.08 Ю 2 20 км 9/0
[Ac As]
+19.6 +13.1 66 +22 +22 комфорт 1012.9 985.2
23 17.08 В 2 20 км 9/9 1500 м
[Sc]
+18.5 +14.4 77 +20 +20 1012.8 985.0
00 18.08 ЮВ 2 20 км 9/9 1500 м
[Sc]
+19.1 +13.4 70 +21 +21 комфорт 1012.6 984.9
01 18.08 ЮВ 2 20 км 9/9 1500 м
[Sc]
+18.7 +13.7 73 +20 +20 1012.6 984.8
02 18.08 Ю 2 20 км 9/9 1500 м
[Sc]
+19.0 +13.3 70 +21 +21 комфорт 1012.4 984.7
03 18.08 ЮВ 2 20 км 9/9 1500 м
[Sc]
+18.8 +12.9 69 +20 +20 1011.9 984.1
04 18.08 ЮВ 1 20 км 9/9 1500 м
[Sc]
+17.8 +13.4 75 +19 +19 1012.3 984.4
05 18.08 Ю 1 20 км 9/9 1500 м
[Sc]
+18.6 +13.8 74 +20 +21 1012.1 984.3
06 18.08 Ю 2 25 км 9/4 1500 м
[Sc Ac As]
+19.5 +13.9 70 +22 +22 комфорт 1011.8 984.1 +17.3
07 18.08 Ю 2 25 км 9/5 1200 м
[Sc As op]
+20.4 +14.5 69 +24 +24 комфорт 1011.6 984.0
08 18.08 Ю 3 25 км 9/0
[Ac As]
+21.7 +15.4 67 +25 +28 комфорт 1011.3 983.9
09 18.08 ЮВ 5 25 км 6/0 2000 м
[Ac As]
+23.6 +15.4 60 +27 +30 жарко 1010.7 983.4
10 18.08 ЮЗ 6 25 км ясно +27.0 +15.6 50 +30 +35 душно 1009.8 982.9
11 18.08 ЮЗ 5 25 км 5/5 1500 м
[Cu hum]
+29.7 +14.9 41 +32 +36 душно 1009.4 982.7
12 18.08 З 6 25 км 5/5 1500 м
[Cu hum]
+30.5 +15.3 40 +33 +36 душно 1009.0 982.4
13 18.08 З 6
{11}
25 км 5/5 1500 м
[Cu hum]
+31.3 +14.6 36 +33 +35 жарко 1008.6 982.1
14 18.08 З 6 25 км 5/5 1500 м
[Cu hum]
+31.4 +15.2 38 +34 +35 душно 1008.7 982.2
15 18.08 З 6
{11}
25 км 3/3 1500 м
[Cu hum]
+31.7 +14.5 35 +33 +35 жарко 1008.5 982.0
16 18.08 З 4 25 км 1/1 1500 м
[Cu hum]
+31.7 +14.1 34 +33 +35 жарко 1008.4 981.9
17 18.08 ЮЗ 4 25 км ясно +30.5 +13.8 36 +32 +32 жарко 1008.4 981.8
18 18.08 Ю 1
{11}
25 км ясно +28.9 +14.1 40 +31 +31 жарко 1008.1 981.4 +31.9
19 18.08 Ю 1 25 км 3/0
[Ac trans]
+26.3 +14.8 49 +29 +29 жарко 1008.9 981.9
20 18.08 ЮВ 2 25 км 3/0
[Ac trans]
+24.0 +14.8 56 +27 +27 жарко 1009.0 981.8
21 18.08 ЮВ 1 20 км 3/0
[Ac trans]
+23.4 +14.7 58 +27 +27 душно 1009.2 982.0
22 18.08 ЮВ 1 20 км 4/0
[Ac trans]
+21.9 +14.8 64 +25 +25 комфорт 1010.7 983.3
23 18.08 ЮВ 2 20 км 4/0
[Ac trans]
+21.1 +15.2 69 +24 +24 комфорт 1011.0 983.5
00 19.08 Ю 1 15 км 4/0
[Ac trans]
+19.2 +15.0 77 +22 +22 комфорт 1011.6 983.9
01 19.08 З 3 20 км 5/0
[Ac trans]
+19.0 +14.9 77 +20 +20 1012.5 984.8
02 19.08 СЗ 3 20 км 5/0
[Ac trans]
+20.2 +15.5 74 +23 +23 комфорт 1013.1 985.5
03 19.08 Ю 2 20 км 6/0
[Ac trans]
+17.7 +15.1 85 +18 +18 1013.4 985.5
04 19.08 Ю 5 12 км слаб. ливневой дождь 10/4 1500 м
[Cb calv Ac As]
+19.5 +15.7 79 +21 +21 комфорт 1016.0 988.2
05 19.08 СЗ 3 25 км в посл. час ливневой дождь 8/3 1110 м
[Sc Ac und]
+18.6 +17.1 91 +20 +20 1015.2 987.4
06 19.08 Ю 2 20 км в посл. час морось {ливн. осадки} 6/0
[Ac As Cs]
+19.8 +17.3 86 +23 +24 комфорт 1015.9 988.2 +17.2 0.6
07 19.08 ЮЗ 1 20 км слаб. дождь 9/0
[Ac As]
+20.4 +16.8 80 +25 +27 комфорт 1016.2 988.5
08 19.08 ЮЗ 1 20 км слаб. дождь 9/4 1500 м
[Sc Ac As]
+21.2 +16.3 74 +25 +27 комфорт 1016.0 988.4
09 19.08 З 2 20 км в посл. час дождь 6/4 1110 м
[Sc Ac As]
+20.3 +16.9 81 +24 +29 комфорт 1017.0 989.3
10 19.08 З 5 20 км 6/3 800 м
[Cu med, cong Ac As]
+22.9 +17.2 70 +28 +31 душно 1017.2 989.7
11 19.08 З 6 20 км 8/5 840 м
[Cu med, cong Ac As Cs]
+22.2 +16.7 71 +27 +28 душно 1017.6 990.0
12 19.08 З 3 20 км в посл. час дождь 9/6 1050 м
[Cu Sc As op]
+23.2 +16.8 67 +28 +30 душно 1017.6 990.1 0.2
13 19.08 З 2 20 км 8/3 1080 м
[Cu med, cong Ac trans Cs]
+23.7 +15.6 60 +27 +32 жарко 1017.5 990.1
14 19.08 ЮЗ 3 20 км 6/5 1170 м
[Cu Sc As op]
+24.8 +15.6 57 +28 +31 жарко 1017.5 990.2
15 19.08 СЗ 4 20 км 8/5 1260 м
[Cu Sc As op]
+23.4 +16.1 64 +28 +29 душно 1017.7 990.2
16 19.08 С 2 20 км 9/5 1470 м
[Sc As op]
+22.9 +17.0 69 +28 +28 душно 1017.5 990.0
17 19.08 С 2 20 км 8/4 1500 м
[Sc Ac As Ci sp]
+23.5 +16.4 64 +27 +27 душно 1017.6 990.2
18 19.08 СВ 1 20 км 8/4 1500 м
[Sc Ac trans Ci sp]
+22.6 +16.4 68 +27 +27 душно 1017.8 990.3 +25.5 0.2
19 19.08 С 2 20 км 6/4 540 м
[Cu Sc Ci sp]
+20.6 +17.4 82 +25 +25 комфорт 1018.9 991.2
20 19.08 С 2 20 км 4/0
[Ci sp]
+19.7 +17.1 85 +23 +23 комфорт 1019.3 991.5
21 19.08 З 2 20 км 4/0
[Ac trans Ci fib]
+17.5 +16.2 92 +18 +18 1019.8 991.7
22 19.08 ЮЗ 2 20 км 4/0
[Ac trans Ci fib]
+17.1 +16.1 94 +17 +17 1020.0 991.9
23 19.08 Ю 1 20 км 6/4 1500 м
[Sc Ci]
+16.8 +16.0 95 +18 +18 1019.8 991.7
00 20.08 ЮВ 1 20 км 8/0
[Ac und]
+17.0 +15.9 93 +18 +18 1020.0 991.9
01 20.08 штиль 0 20 км 9/0
[Ac und]
+16.4 +15.6 95 +16 +16 1020.3 992.1
02 20.08 ЮВ 1 20 км 10/0
[Ac As Cs]
+16.8 +15.8 94 +18 +18 1020.2 992.1
03 20.08 СЗ 2 15 км 10/0
[Ac As Cs]
+16.2 +15.6 96 +16 +16 1020.7 992.5
04 20.08 ЮВ 1 15 км 9/4 1300 м
[Sc Ac As]
+16.6 +15.8 95 +17 +17 1020.9 992.7
05 20.08 ЮВ 2 20 км слаб. дождь 9/6 1000 м
[Sc Ac As]
+17.0 +16.1 94 +17 +17 1020.9 992.8
06 20.08 ЮВ 2 10 км в посл. час дождь 9/5 1410 м
[Sc Ac As]
+17.6 +16.6 94 +18 +19 1020.5 992.4 +15.9 0.0
07 20.08 ЮЗ 1 10 км 9/4 1470 м
[Sc Ac As]
+18.2 +17.0 93 +20 +21 1020.6 992.6
08 20.08 СЗ 1 15 км 9/6 1470 м
[Sc Ac As]
+19.0 +17.2 89 +22 +23 комфорт 1020.8 992.9
09 20.08 СЗ 3 20 км 9/3 1500 м
[Sc Ac As]
+20.6 +17.7 83 +25 +27 комфорт 1021.0 993.2
10 20.08 СВ 2 20 км 8/4 570 м
[Cu Sc Ac As]
+23.1 +17.5 71 +28 +33 душно 1020.3 992.8
11 20.08 С 2 20 км 6/3 1000 м
[Cu hum Ac As]
+24.9 +16.5 60 +28 +35 жарко 1019.7 992.3
12 20.08 С 3 20 км 9/4 1110 м
[Cu hum Ac und]
+25.6 +17.6 61 +30 +32 душно 1019.1 991.8
13 20.08 С 3 20 км 10/4 1350 м
[Cu med, cong Ac As]
+25.0 +17.0 61 +29 +30 душно 1018.8 991.5
14 20.08 С 3 10 км слаб. ливневой дождь 10/5 1050 м
[Cu med, cong As op]
+24.0 +16.7 64 +28 +28 душно 1018.8 991.4
15 20.08 СЗ 4 10 км ливневой дождь 10/3 1170 м
[Cb cap As op]
+20.1 +18.8 92 +24 +24 комфорт 1019.5 991.7
16 20.08 СЗ 4 4000 м слаб. ливневой дождь 10/10 1320 м
[Cb cap]
+19.5 +18.4 93 +22 +22 комфорт 1019.7 991.9
17 20.08 З 5 2500 м ливневой дождь 10/10 150 м
[Cb cap]
+17.9 +17.1 95 +17 +17 1020.1 992.1
18 20.08 СЗ 3 15 км дождь {ливн. осадки} 10/3 900 м
[Sc diur, vesp As op]
+17.4 +16.9 97 +17 +17 1020.0 991.9 +26.4 15
19 20.08 Ю 1 20 км в посл. час дождь 10/10 1500 м
[Sc]
+17.4 +17.0 97 +18 +18 1020.1 992.0
20 20.08 СЗ 2 20 км 10/10 180 м
[Sc]
+17.7 +17.2 97 +18 +18 1020.0 992.0
21 20.08 СЗ 4 3000 м ливневой дождь 10/10 90 м
[Cb cap]
+17.8 +17.7 99 +18 +18 1020.0 992.0
22 20.08 СЗ 6 10 км в посл. час дождь {ливн. осадки} 10/10 180 м
[Sc diur, vesp]
+17.4 +17.0 97 +17 +17 1020.7 992.6
23 20.08 СЗ 8 10 км слаб. дождь 10/10 300 м
[Sc]
+16.4 +15.2 93 +15 +15 1021.8 993.6
00 21.08 СЗ 9
{12}
10 км слаб. дождь 10/10 210 м
[Sc]
+15.2 +14.4 95 +13 +13 1022.6 994.2 10
01 21.08 СЗ 10
{13}
8000 м слаб. дождь 10/10 300 м
[Sc]
+14.7 +13.9 95 +12 +12 1023.5 995.0
02 21.08 СЗ 8
{12}
3500 м слаб. дождь 10/10 180 м
[Sc]
+14.2 +13.8 97 +12 +12 1024.9 996.4
03 21.08 СЗ 6
{13}
10 км слаб. дождь 10/10 180 м
[Sc]
+14.2 +13.7 97 +12 +12 1025.8 997.2
04 21.08 З 5 10 км слаб. дождь 10/8 210 м
[Sc As op]
+14.2 +13.5 96 +12 +12 1026.8 998.2
05 21.08 З 5 15 км в посл. час дождь 10/6 420 м
[Sc As op]
+14.3 +13.2 93 +13 +13 1027.0 998.4
06 21.08 СЗ 5
{13}
20 км {дождь} 10/10 450 м
[Sc]
+14.7 +13.2 91 +13 +13 1027.9 999.3 +14.1 14
07 21.08 СЗ 4 20 км 10/10 750 м
[Sc]
+15.3 +13.2 87 +14 +14 1028.2 999.7
08 21.08 СЗ 6 20 км 9/3 480 м
[Sc Ac und]
+16.1 +13.1 82 +15 +16 1028.3 999.8
09 21.08 СЗ 5 20 км 9/3 570 м
[Sc Ac As]
+16.2 +12.4 78 +15 +17 1028.6 1000.1
10 21.08 СЗ 3 25 км 8/3 600 м
[Cu hum Ac As Ci]
+17.2 +12.4 73 +17 +22 1028.6 1000.2
11 21.08 С 2 25 км 8/3 720 м
[Cu hum Ci fib]
+18.5 +12.0 66 +20 +28 1028.3 1000.1
12 21.08 С 1 25 км 8/8 1020 м
[Cu med, cong]
+20.3 +12.9 62 +23 +26 комфорт 1028.0 999.9
13 21.08 З 2 25 км 8/5 1050 м
[Cu med, cong Ci fib]
+20.2 +11.4 57 +23 +27 комфорт 1027.6 999.5
14 21.08 З 2 25 км 8/5 1170 м
[Cu med, cong Ci fib]
+21.1 +11.9 56 +23 +26 комфорт 1027.4 999.4
15 21.08 В 3 25 км 8/5 1230 м
[Cu med, cong Ci fib]
+20.6 +12.3 59 +23 +25 комфорт 1027.4 999.4
16 21.08 В 2 25 км 8/3 1500 м
[Cu med, cong Ac As Ci fib]
+20.6 +12.3 59 +23 +24 комфорт 1027.4 999.4
17 21.08 В 2 25 км 8/1 1500 м
[Cu med, cong Ci fib]
+20.2 +12.5 61 +23 +23 комфорт 1027.4 999.3
18 21.08 В 1 25 км 6/0
[Ci fib]
+18.7 +13.1 70 +21 +21 комфорт 1027.6 999.4 +21.2
19 21.08 В 1 25 км 4/0
[Ci fib]
+17.9 +12.8 72 +19 +19 1028.1 999.8
20 21.08 ЮЗ 2 25 км ясно +14.4 +12.9 91 +14 +14 1028.6 1000.0
21 21.08 Ю 1 20 км ясно +14.3 +13.0 92 +15 +15 1028.9 1000.2
22 21.08 ЮВ 1 20 км ясно +14.0 +12.7 92 +14 +14 1029.1 1000.4
23 21.08 Ю 1 20 км 3/0
[Ci]
+12.3 +11.3 94 +12 +12 1029.0 1000.1
00 22.08 ЮЗ 1 20 км 5/0
[Ci]
+11.9 +11.4 97 +12 +12 1029.0 1000.1
01 22.08 В 1 10 км 5/0
[Ci]
+11.6 +11.3 98 +11 +11 1028.6 999.7
02 22.08 ЮВ 1 10 км 4/0
[Ci fib]
+12.1 +11.6 97 +12 +12 1028.7 999.8
03 22.08 ЮЗ 2 10 км 4/0
[Ci fib]
+10.9 +10.5 97 +9 +9 1028.4 999.4
04 22.08 ЮЗ 2 15 км 4/0
[Ci fib]
+10.5 +10.2 98 +9 +9 1028.7 999.6
05 22.08 СЗ 1 20 км 8/0
[Ci]
+11.6 +11.1 97 +11 +12 1028.5 999.6
06 22.08 З 2 15 км 9/0
[Ac As Cs]
+12.6 +12.2 97 +12 +13 1028.4 999.6 +10.4
07 22.08 С 2 20 км 8/1 420 м
[Cu hum Cs]
+14.8 +13.0 89 +14 +18 1028.0 999.4
08 22.08 С 1 20 км 8/1 450 м
[Cu hum Ci fib]
+16.7 +13.9 84 +18 +24 1027.8 999.4
09 22.08 С 2 20 км 8/3 450 м
[Cu hum Ci fib]
+17.6 +13.6 77 +18 +24 1027.5 999.2
10 22.08 С 4 20 км 8/4 600 м
[Cu med, cong Cc]
+18.9 +13.2 69 +20 +24 1027.2 999.0
11 22.08 СВ 3 20 км 8/4 750 м
[Cu med, cong Cc]
+20.0 +12.8 63 +22 +28 комфорт 1026.4 998.4
12 22.08 СВ 2 20 км 6/5 900 м
[Cu med, cong Cc]
+21.3 +13.3 60 +24 +30 комфорт 1026.1 998.2
13 22.08 СВ 4 20 км 8/5 1200 м
[Cu med, cong Ci fib]
+22.0 +12.8 56 +25 +28 комфорт 1025.7 997.9
14 22.08 СВ 3 20 км 8/6 1350 м
[Cu med, cong Cc]
+23.0 +13.3 54 +26 +28 жарко 1025.2 997.5
15 22.08 С 3 20 км 8/4 1350 м
[Cu med, cong Ac cuf Ci fib]
+22.4 +13.1 56 +25 +27 комфорт 1025.1 997.3
16 22.08 СВ 3 20 км 9/1 1200 м
[Cu hum Ac cuf Ci fib]
+22.2 +13.1 56 +25 +26 комфорт 1024.8 997.0
17 22.08 СВ 2 20 км 9/1 1200 м
[Cu hum Ac trans]
+21.8 +13.6 60 +25 +25 комфорт 1024.8 997.0
18 22.08 СВ 2 20 км 9/5 1350 м
[Sc Ac trans]
+20.7 +13.5 63 +24 +24 комфорт 1025.2 997.3 +23.1
19 22.08 С 2 20 км 8/5 1350 м
[Sc Ac trans]
+19.5 +13.6 69 +22 +22 комфорт 1026.0 997.9
20 22.08 СВ 3 20 км 4/4 1350 м
[Sc]
+18.3 +13.5 74 +19 +19 1026.5 998.3
21 22.08 В 2 20 км 3/0
[Ci fib]
+17.6 +13.5 77 +18 +18 1026.7 998.4
22 22.08 Ю 2 20 км 4/0
[Ci fib]
+14.8 +13.5 92 +14 +14 1027.1 998.5
23 22.08 ЮЗ 1 10 км 4/0
[Ci fib]
+14.2 +13.1 93 +14 +14 1027.0 998.4
00 23.08 Ю 1 10 км 3/0
[Ci fib]
+14.0 +12.7 92 +14 +14 1026.9 998.3
01 23.08 В 1 10 км 3/0
[Ci fib]
+13.3 +12.6 96 +13 +13 1027.1 998.4
02 23.08 В 1 10 км 3/0
[Ci fib]
+13.0 +12.3 96 +13 +13 1027.1 998.4
03 23.08 ЮЗ 2 10 км 3/0
[Ci fib]
+11.6 +11.3 98 +10 +10 1027.4 998.5
04 23.08 ЮЗ 2 15 км ясно +11.7 +11.4 98 +10 +10 1027.6 998.7
05 23.08 В 1 10 км 1/0
[Ac trans]
+12.4 +11.7 95 +12 +13 1027.8 999.0
06 23.08 Ю 1 10 км ясно +14.6 +13.2 91 +15 +17 1027.6 999.0 +11.4
07 23.08 З 1 10 км ясно +17.3 +14.0 81 +18 +24 1027.2 998.9
08 23.08 С 1 15 км ясно +18.6 +13.6 73 +20 +29 1027.2 999.0
09 23.08 СЗ 2 15 км ясно +20.4 +14.7 70 +24 +34 комфорт 1026.9 998.9
10 23.08 С 3 20 км ясно +21.5 +14.6 65 +25 +35 комфорт 1026.5 998.6
11 23.08 С 2 20 км 1/1 960 м
[Cu hum]
+22.2 +14.4 61 +25 +37 комфорт 1025.9 998.1
12 23.08 С 2 20 км 1/1 1140 м
[Cu hum]
+23.3 +13.5 54 +27 +38 душно 1025.5 997.8
13 23.08 СВ 2 20 км ясно +24.5 +13.6 51 +27 +37 жарко 1024.9 997.3
14 23.08 С 2 20 км ясно +24.7 +13.0 48 +27 +34 жарко 1024.5 996.9
15 23.08 СВ 2 20 км ясно +25.0 +12.7 46 +27 +31 жарко 1024.0 996.5

 

Местоположение метеостанции Часлав (Чехия): широта 49.93 долгота 15.38 высота над уровнем моря 239 м.

В архиве по умолчанию представлена погода в Чаславе за последнюю неделю. Архивные данные за месяц целиком и за предыдущие месяцы, начиная с января 2011 года, Вы можете получить, выбрав интересующий диапазон дат из раскрывающегося списка и нажав кнопку "Ввод!".


*Определитесь, кто Вы:
робот инопланетянин человек

Внимание! Время в таблицах - всемирное. Для получения местного времени необходимо прибавить поправку, которая равна 1 ч.

Смотрите также архив погоды в соседних городах и на ближайших метеорологических станциях:

Погода в Пардубице (Чехия) (27 км)
Погода в Кресин-Крамолине (Чехия) (44 км)
Погода в Пршибиславе (Чехия) (48 км)
Погода в Свраточе (Чехия) (52 км)
Погода в Прага аэропорту (Чехия) (64 км)
Погода в Праге-Либус (Чехия) (67 км)
Погода в Усти-над-Орлици (Чехия) (75 км)
Погода в Поломе (Чехия) (82 км)
Погода в Праге (Чехия) (83 км)
Погода в Церкви Мыслова (Чехия) (84 км)

Пояснения к столбцам:

Ветер - указаны скорость ветра в м/с - средняя за 10 мин, порывы в срок и между сроками (в фигурных скобках) и направление, откуда дует ветер: С - северный, СВ - северо-восточный, В - восточный, ЮВ - юго-восточный, Ю - южный, ЮЗ - юго-западный, З - западный, СЗ - северо-западный.
Видимость - горизонтальная дальность видимости в метрах или километрах. При видимости от 1 до 10 км при отсутствии осадков обычно наблюдается дымка, при ухудшении видимости до 1 км и менее - туман. В сухую погоду видимость может ухудшаться дымом, пылью или мглою.
Явления - указаны атмосферные явления, наблюдавшиеся в срок или в последний час перед сроком; фигурными скобками обозначены явления, наблюдавшиеся между сроками (за 1-3 часа до срока); квадратными скобками обозначены град или гололедные отложения с указанием их диаметра в мм.
Облачность - указаны через наклонную черту общая и нижняя облачность в баллах и высота нижней границы облаков в метрах; квадратными скобками обозначены формы облаков: Ci - перистые, Cs - перисто-слоистые, Cc - перисто-кучевые, Ac - высококучевые, As - высокослоистые, Sc - слоисто-кучевые, Ns - слоисто-дождевые, Cu - кучевые, Cb - кучево-дождевые. Подробнее классификацию облаков см. в Атласе облаков (PDF).
T - Температура воздуха - температура, измеренная на высоте 2 м над землей.
Td - Температура точки росы - температура, при понижении до которой содержащийся в воздухе водяной пар достигнет насыщения.
f - Относительная влажность воздуха - влажноcть воздуха, измеренная на высоте 2 м над землей.
Te - Эффективная температура - температура, которую ощущает одетый по сезону человек в тени. Характеристика душности погоды. При расчете учитывается влияние влажности воздуха и скорости ветра на теплоощущения человека.
Tes - Эффективная температура на солнце - температура, которую ощущает человек, с поправкой на солнечный нагрев. Характеристика знойности погоды. Зависит от высоты солнца над горизонтом, облачности и скорости ветра. Ночью, в пасмурную погоду, а также при ветре 12 м/с и более поправка равна нулю.
P - Атмосферное давление - приведенное к уровню моря атмосферное давление.
Po - Атмосферное давление - измеренное на уровне метеостанции атмосферное давление.
Tmin - Минимальная температура - минимум температуры воздуха на высоте 2 м над землей.
Tmax - Максимальная температура - максимум температуры воздуха на высоте 2 м над землей.
R - Количество осадков - Количество выпавших осадков за период времени, мм. При наведении курсора мыши на число - период времени, за который выпало указанное количество осадков.
R24 - Количество осадков - Количество выпавших осадков за 24 часа, мм.
S - Снежный покров - Высота снежного покрова, см. При наведении курсора мыши на число - состояние снежного покрова и степень покрытия местности в баллах.